Change the Weather History Date:

Sunday, June 23, 2013

  Actual Average Record
Temperature  
Mean Temperature 72 °F -  
Max Temperature 80 °F 81 °F 87 °F (2002)
Min Temperature 63 °F 62 °F 57 °F (1999)
Cooling Degree Days 6    
Growing Degree Days 22 (Base 50)    
Moisture  
Dew Point 67 °F    
Average Humidity 81    
Maximum Humidity 95    
Minimum Humidity 53    
Precipitation  
Precipitation 0.00 in 0.02 in - ()
Sea Level Pressure  
Sea Level Pressure 29.99 in    
Wind  
Wind Speed 6 mph ()    
Max Wind Speed 18 mph    
Max Gust Speed -    
Visibility 8.5 miles    
Events      
Averages and records for this station are not official NWS values.
T = Trace of Precipitation, MM = Missing Value Source: Averaged Metar Reports

Daily Weather History Graph

Daily Weather History Graph

Search for Another Location

Airport or City:

Trip Planner

Search our weather history database for the weather conditions in past years. The results will help you decide how hot, cold, wet, or windy it might be!

Date:

Astronomy

Jun. 23, 2013 Rise Set
Actual Time 5:36 AM CEST 8:48 PM CEST
Civil Twilight 5:02 AM CEST 9:22 PM CEST
Nautical Twilight 4:18 AM CEST 10:06 PM CEST
Astronomical Twilight 3:25 AM CEST 10:59 PM CEST
Moon 8:44 PM CEST (6/23) 5:35 AM CEST (6/23)
Length of Visible Light 16h 20m
Length of Day
15h 12m
Full, 100% of the Moon is Illuminated
Jun 23
Full
Jun 23
Full
Jun 30
Last Quarter
Jul 8
New
Jul 16
First Quarter

Hourly Weather History & Observations

Time (CEST) Temp. Dew Point Humidity Pressure Visibility Wind Dir Wind Speed Gust Speed Precip Events Conditions
12:55 AM 69.8 °F 68.0 °F 94% 30.04 in 6.2 mi WNW 4.6 mph - N/A   Scattered Clouds
1:55 AM 68.0 °F 66.2 °F 94% 30.04 in 6.2 mi North 2.3 mph - N/A   Scattered Clouds
2:00 AM 68 °F 67 °F 94% 30.05 in 12 mi North 2.3 mph - -   Overcast
2:55 AM 68.0 °F 62.6 °F 83% 30.01 in 6.2 mi SSW 3.5 mph - N/A   Scattered Clouds
3:55 AM 68.0 °F 66.2 °F 94% 30.01 in 6.2 mi NNW 3.5 mph - N/A   Scattered Clouds
4:55 AM 68.0 °F 66.2 °F 94% 30.01 in 6.2 mi NNE 3.5 mph - N/A   Scattered Clouds
5:00 AM 67 °F 66 °F 95% 30.03 in 9 mi NNE 3.5 mph - -   Scattered Clouds
5:55 AM 68.0 °F 66.2 °F 94% 30.01 in 6.2 mi NNE 2.3 mph - N/A   Scattered Clouds
6:55 AM 66.2 °F 64.4 °F 94% 30.01 in 6.2 mi North 2.3 mph - N/A   Partly Cloudy
7:55 AM 71.6 °F 68.0 °F 88% 30.01 in 6.2 mi NNW 3.5 mph - N/A   Partly Cloudy
8:00 AM 71 °F 67 °F 85% 30.02 in 9 mi NNW 3.5 mph - -   Scattered Clouds
8:55 AM 73.4 °F 69.8 °F 88% 30.01 in 6.2 mi NNE 1.2 mph - N/A   Partly Cloudy
9:55 AM 75.2 °F 64.4 °F 69% 30.01 in 6.2 mi SW 5.8 mph - N/A   Partly Cloudy
10:55 AM 75.2 °F 66.2 °F 73% 30.01 in 6.2 mi SW 9.2 mph - N/A   Partly Cloudy
11:00 AM 76 °F 67 °F 66% 30.01 in 16 mi SW 9.2 mph - -   Scattered Clouds
11:55 AM 77.0 °F 66.2 °F 69% 30.01 in 6.2 mi SW 8.1 mph - N/A   Partly Cloudy
12:55 PM 77.0 °F 68.0 °F 74% 29.98 in 6.2 mi WSW 9.2 mph - N/A   Partly Cloudy
1:55 PM 78.8 °F 64.4 °F 61% 29.98 in - West 15.0 mph - N/A   Clear
2:00 PM 79 °F 65 °F 53% 29.99 in 16 mi West 15.0 mph - -  
2:55 PM 78.8 °F 68.0 °F 69% 29.98 in - West 16.1 mph - N/A   Clear
3:55 PM 78.8 °F 68.0 °F 69% 29.98 in - West 16.1 mph - N/A   Clear
4:55 PM 77.0 °F 68.0 °F 74% 29.98 in - West 18.4 mph - N/A   Clear
5:00 PM 77 °F 68 °F 67% 29.98 in 16 mi West 18.4 mph - -  
5:55 PM 77.0 °F 68.0 °F 74% 29.95 in - WNW 17.3 mph - N/A   Clear
6:55 PM 77.0 °F 66.2 °F 69% 29.95 in - West 12.7 mph - N/A   Clear
7:55 PM 75.2 °F 66.2 °F 73% 29.95 in - WNW 12.7 mph - N/A   Clear
8:00 PM 74 °F 66 °F 70% 29.96 in 12 mi WNW 12.7 mph - -  
8:55 PM 73.4 °F 68.0 °F 83% 29.95 in - West 9.2 mph - N/A   Clear
9:55 PM 69.8 °F 68.0 °F 94% 29.95 in - NW 4.6 mph - N/A   Clear
10:55 PM 68.0 °F 66.2 °F 94% 29.95 in - North 3.5 mph - N/A   Clear
11:00 PM 68 °F 66 °F 92% 29.97 in 7 mi North 3.5 mph - -  
11:55 PM 68.0 °F 66.2 °F 94% 29.95 in - WNW 3.5 mph - N/A   Clear